Weather History for Green Bay, WI

Change the Weather History Date:

Saturday, December 14, 2013

  Actual Average Record
Temperature  
Mean Temperature 18 °F 22 °F  
Max Temperature 22 °F 29 °F 55 °F (1975)
Min Temperature 14 °F 15 °F -17 °F (1985)
Degree Days  
Heating Degree Days 47 43  
Month to date heating degree days 667 572  
Since 1 July heating degree days 2278 2312  
Cooling Degree Days 0 0  
Month to date cooling degree days 0 0  
Year to date cooling degree days 535 398  
Moisture  
Dew Point 14 °F    
Average Humidity 86    
Maximum Humidity 92    
Minimum Humidity 80    
Precipitation  
Precipitation 0.15 in 0.04 in 1.94 in (1891)
Month to date precipitation 0.92 0.77  
Year to date precipitation 34.19 28.78  
Snow  
Snow 2.20 in 0.40 in 7.80 in (1989)
Month to date snowfall 10.9 5.8  
Since 1 July snowfall 12.1 10.0  
Snow Depth 4.00 in    
Sea Level Pressure  
Sea Level Pressure 30.15 in    
Wind  
Wind Speed 9 mph (NNE)    
Max Wind Speed 15 mph    
Max Gust Speed 20 mph    
Visibility 3 miles    
Events Snow    
T = Trace of Precipitation, MM = Missing Value Source: NWS Daily Summary

Daily Weather History Graph

Daily Weather History Graph

Search for Another Location

Airport:

Trip Planner

Search our weather history database for the weather conditions in past years. The results will help you decide how hot, cold, wet, or windy it might be!

Date:

Astronomy

Dec. 14, 2013 Rise Set
Actual Time 7:21 AM CST 4:13 PM CST
Civil Twilight 6:48 AM CST 4:46 PM CST
Nautical Twilight 6:11 AM CST 5:23 PM CST
Astronomical Twilight 5:35 AM CST 5:58 PM CST
Moon 2:38 PM CST (12/14) 4:37 AM CST (12/14)
Length of Visible Light 9h 58m
Length of Day
8h 51m
Waxing Gibbous, 94% of the Moon is Illuminated
Dec 14
Waxing Gibbous
Dec 17
Full
Dec 25
Last Quarter
Jan 1
New
Jan 7
First Quarter

Hourly Weather History & Observations

Time (CST) Temp. Windchill Dew Point Humidity Pressure Visibility Wind Dir Wind Speed Gust Speed Precip Events Conditions
12:03 AM 14.0 °F -0.8 °F 10.9 °F 88% 30.28 in 1.5 mi NNE 13.8 mph - 0.00 in Snow Light Snow
12:17 AM 14.0 °F -1.4 °F 10.0 °F 84% 30.28 in 2.0 mi NNE 15.0 mph - 0.00 in Snow Light Snow
12:27 AM 14.0 °F -1.4 °F 10.9 °F 88% 30.27 in 1.5 mi NNE 15.0 mph - 0.00 in Snow Light Snow
12:48 AM 14.0 °F 0.5 °F 10.4 °F 86% 30.27 in 2.5 mi NNE 11.5 mph - 0.00 in Snow Light Snow
12:50 AM 14.0 °F 0.5 °F 10.4 °F 86% 30.27 in 3.0 mi NNE 11.5 mph - 0.00 in Snow Light Snow
12:53 AM 14.0 °F 1.2 °F 10.9 °F 88% 30.32 in 3.0 mi NNE 10.4 mph - 0.00 in Snow Light Snow
12:58 AM 14.0 °F -0.2 °F 10.9 °F 88% 30.27 in 2.5 mi NNE 12.7 mph - 0.00 in Snow Light Snow
1:10 AM 14.0 °F 0.5 °F 10.9 °F 88% 30.27 in 1.8 mi NNE 11.5 mph - 0.00 in Snow Light Snow
1:23 AM 14.0 °F 0.5 °F 10.9 °F 88% 30.27 in 2.0 mi NNE 11.5 mph - 0.00 in Snow Light Snow
1:53 AM 15.1 °F 3.3 °F 12.0 °F 88% 30.31 in 2.0 mi NNE 9.2 mph - 0.01 in Snow Light Snow
2:12 AM 15.1 °F 2.5 °F 12.0 °F 88% 30.26 in 3.0 mi North 10.4 mph - 0.00 in Snow Light Snow
2:30 AM 15.1 °F 2.5 °F 12.0 °F 88% 30.27 in 2.5 mi North 10.4 mph - 0.00 in Snow Light Snow
2:44 AM 15.1 °F 2.5 °F 12.0 °F 88% 30.26 in 1.5 mi North 10.4 mph - 0.00 in Snow Light Snow
2:53 AM 15.1 °F 2.5 °F 12.0 °F 88% 30.30 in 1.5 mi North 10.4 mph - 0.00 in Snow Light Snow
3:07 AM 14.0 °F 1.2 °F 12.0 °F 92% 30.25 in 1.8 mi North 10.4 mph - 0.01 in Snow Light Snow
3:14 AM 14.0 °F 1.2 °F 12.0 °F 92% 30.25 in 2.0 mi North 10.4 mph - 0.01 in Snow Light Snow
3:23 AM 14.0 °F 1.2 °F 12.0 °F 92% 30.24 in 1.8 mi North 10.4 mph - 0.01 in Snow Light Snow
3:40 AM 15.1 °F 2.5 °F 12.0 °F 88% 30.24 in 2.0 mi North 10.4 mph - 0.01 in Snow Light Snow
3:53 AM 15.1 °F 2.5 °F 12.0 °F 88% 30.28 in 3.0 mi North 10.4 mph - 0.01 in Snow Light Snow
4:20 AM 17.1 °F 5.8 °F 14.0 °F 88% 30.22 in 2.5 mi North 9.2 mph - 0.01 in Snow Light Snow
4:27 AM 17.1 °F 5.0 °F 14.0 °F 88% 30.22 in 1.8 mi NE 10.4 mph - 0.01 in Snow Light Snow
4:45 AM 18.0 °F 4.2 °F 14.0 °F 84% 30.22 in 2.5 mi NE 13.8 mph - 0.01 in Snow Light Snow
4:53 AM 18.0 °F 4.2 °F 15.1 °F 88% 30.26 in 3.0 mi NE 13.8 mph - 0.01 in Snow Light Snow
5:12 AM 18.0 °F 4.2 °F 15.1 °F 88% 30.21 in 2.0 mi NE 13.8 mph - 0.00 in Snow Light Snow
5:40 AM 18.0 °F 4.2 °F 15.1 °F 88% 30.21 in 1.8 mi NE 13.8 mph - 0.00 in Snow Light Snow
5:53 AM 18.0 °F 4.2 °F 15.1 °F 88% 30.26 in 1.5 mi NE 13.8 mph - 0.00 in Snow Light Snow
6:28 AM 18.0 °F 4.8 °F 15.1 °F 88% 30.22 in 2.0 mi NE 12.7 mph - 0.01 in Snow Light Snow
6:45 AM 18.0 °F 3.6 °F 15.1 °F 88% 30.21 in 1.8 mi NE 15.0 mph - 0.01 in Snow Light Snow
6:53 AM 18.0 °F 4.2 °F 15.1 °F 88% 30.25 in 2.0 mi NE 13.8 mph - 0.01 in Snow Light Snow
7:06 AM 18.0 °F 4.8 °F 15.1 °F 88% 30.21 in 1.8 mi NE 12.7 mph - 0.00 in Snow Light Snow
7:17 AM 18.0 °F 4.2 °F 15.1 °F 88% 30.20 in 2.0 mi NE 13.8 mph - 0.00 in Snow Light Snow
7:24 AM 18.0 °F 4.8 °F 15.1 °F 88% 30.20 in 1.5 mi NE 12.7 mph - 0.00 in Snow Light Snow
7:40 AM 18.0 °F 4.8 °F 15.1 °F 88% 30.20 in 0.8 mi NE 12.7 mph - 0.01 in Snow Light Snow
7:53 AM 18.0 °F 4.2 °F 15.1 °F 88% 30.24 in 1.0 mi NE 13.8 mph - 0.02 in Snow Light Snow
8:32 AM 19.0 °F 6.1 °F 16.0 °F 88% 30.19 in 0.8 mi NE 12.7 mph - 0.00 in Snow Light Snow
8:53 AM 19.0 °F 6.1 °F 16.0 °F 88% 30.23 in 1.0 mi NE 12.7 mph - 0.01 in Snow Light Snow
9:53 AM 19.9 °F 7.9 °F 17.1 °F 89% 30.22 in 1.2 mi NE 11.5 mph - 0.01 in Snow Light Snow
10:04 AM 19.9 °F 8.6 °F 17.1 °F 89% 30.17 in 1.0 mi NE 10.4 mph - 0.00 in Snow Light Snow
10:36 AM 21.0 °F 10.6 °F 18.0 °F 88% 30.15 in 0.8 mi NE 9.2 mph - 0.02 in Snow Light Snow
10:53 AM 21.0 °F 9.9 °F 18.0 °F 88% 30.18 in 1.0 mi NE 10.4 mph - 0.02 in Snow Light Snow
11:53 AM 21.0 °F 11.4 °F 18.0 °F 88% 30.14 in 1.5 mi NE 8.1 mph - 0.01 in Snow Light Snow
12:02 PM 21.0 °F 8.6 °F 18.0 °F 88% 30.10 in 2.0 mi NNE 12.7 mph 16.1 mph 0.00 in Snow Light Snow
12:27 PM 21.9 °F 11.7 °F 18.0 °F 85% 30.08 in 3.0 mi NE 9.2 mph - 0.00 in Snow Light Snow
12:53 PM 21.0 °F 9.9 °F 18.0 °F 88% 30.11 in 2.0 mi NNE 10.4 mph - 0.00 in Snow Light Snow
1:01 PM 21.0 °F 9.9 °F 18.0 °F 88% 30.06 in 1.5 mi NNE 10.4 mph - 0.00 in Snow Light Snow
1:53 PM 19.9 °F 8.6 °F 17.1 °F 89% 30.08 in 1.0 mi North 10.4 mph - 0.01 in Snow Light Snow
2:30 PM 19.9 °F 8.6 °F 16.0 °F 85% 30.03 in 2.5 mi North 10.4 mph - 0.00 in Snow Light Snow
2:38 PM 19.9 °F 10.1 °F 16.0 °F 85% 30.03 in 3.0 mi North 8.1 mph - 0.00 in Snow Light Snow
2:48 PM 19.4 °F 9.5 °F 15.8 °F 86% 30.02 in 1.8 mi North 8.1 mph - 0.00 in Snow Light Snow
2:53 PM 19.0 °F 9.0 °F 15.1 °F 85% 30.06 in 1.5 mi North 8.1 mph - 0.00 in Snow Light Snow
3:00 PM 19.0 °F 11.1 °F 16.0 °F 88% 30.02 in 1.5 mi North 5.8 mph - 0.00 in Snow Light Snow
3:11 PM 19.0 °F 11.1 °F 16.0 °F 88% 30.02 in 2.5 mi NNW 5.8 mph - 0.00 in Snow Light Snow
3:25 PM 19.0 °F 11.1 °F 16.0 °F 88% 30.02 in 4.0 mi Variable 5.8 mph - 0.01 in Snow Light Snow
3:53 PM 19.0 °F 9.0 °F 15.1 °F 85% 30.06 in 8.0 mi North 8.1 mph - 0.01 in   Overcast
4:53 PM 18.0 °F 8.7 °F 14.0 °F 84% 30.05 in 10.0 mi North 6.9 mph - N/A   Overcast
5:08 PM 17.1 °F 7.6 °F 14.0 °F 88% 30.01 in 10.0 mi NNW 6.9 mph - N/A   Overcast
5:43 PM 17.1 °F 10.0 °F 12.9 °F 84% 30.00 in 10.0 mi Variable 4.6 mph - N/A   Overcast
5:53 PM 17.1 °F 10.0 °F 12.9 °F 84% 30.04 in 10.0 mi North 4.6 mph - N/A   Overcast
6:53 PM 17.1 °F 10.0 °F 12.9 °F 84% 30.02 in 5.0 mi Variable 4.6 mph - 0.00 in Snow Light Snow
7:53 PM 17.1 °F 11.7 °F 12.9 °F 84% 30.00 in 8.0 mi Variable 3.5 mph - 0.00 in Snow Light Snow
8:27 PM 16.0 °F 10.4 °F 12.9 °F 88% 29.95 in 9.0 mi NW 3.5 mph - 0.00 in   Overcast
8:53 PM 16.0 °F 10.4 °F 12.9 °F 88% 29.98 in 4.0 mi Variable 3.5 mph - 0.00 in Snow Light Snow
9:53 PM 16.0 °F 6.3 °F 12.9 °F 88% 29.96 in 5.0 mi WSW 6.9 mph - 0.00 in Snow Light Snow
10:53 PM 16.0 °F 3.6 °F 12.9 °F 88% 29.93 in 4.0 mi SW 10.4 mph - 0.00 in Snow Light Snow
11:53 PM 16.0 °F 2.9 °F 12.9 °F 88% 29.92 in 8.0 mi SW 11.5 mph - 0.00 in   Overcast